Location: Newark
(5.8900°S, 42.6378°W)
Time: 12:06:44
(UTC+00:00)

XW-2D - Pass Details

Date: 31 October 2019
Orbit: 507 x 528 km, 97.5° (Epoch: 12 November)

Event Time Altitude Azimuth Distance (km) Brightness Sun altitude
Rises 07:36:37 0° 40° (NE) 2,616 ? -12.4°
Reaches altitude 10° 07:39:16 10° 61° (ENE) 1,740 ? -11.8°
Maximum altitude 07:41:45 17° 103° (ESE) 1,359 ? -11.2°
Drops below altitude 10° 07:44:16 10° 145° (SE) 1,757 ? -10.6°
Sets 07:46:56 0° 165° (SSE) 2,654 ? -9.9°
